Elkins, WV

10:29 AM EDT on September 18, 2019 (GMT -0400)
Elkins-Randolph County

Weather History for KEKN - August, 2019

Change the Weather History Date:

Sunday, August 25, 2019

  Actual Average Record
Temperature  
Mean Temperature 61 °F 68 °F  
Max Temperature 73 °F 80 °F 91 °F (1993)
Min Temperature 48 °F 57 °F 40 °F (1951)
Degree Days  
Heating Degree Days 4 1  
Month to date heating degree days 5 10  
Since 1 June heating degree days 44 77  
Since 1 July heating degree days 5 22  
Cooling Degree Days 0 4  
Month to date cooling degree days 182 120  
Year to date cooling degree days 652 401  
Since 1 June cooling degree days 569 378  
Growing Degree Days 11 (Base 50)    
Moisture  
Dew Point 49 °F    
Average Humidity 75    
Maximum Humidity 93    
Minimum Humidity 43    
Precipitation  
Precipitation 0.00 in 0.11 in 1.12 in (1937)
Month to date precipitation 5.50 3.17  
Year to date precipitation 37.12 32.14  
Sea Level Pressure  
Sea Level Pressure 30.22 in    
Wind  
Wind Speed 1 mph ()    
Max Wind Speed 13 mph    
Max Gust Speed 22 mph    
Visibility 8.0 miles    
Events Fog    
T = Trace of Precipitation, MM = Missing Value Source: Averaged Metar Reports

Daily Weather History Graph

Daily Weather History Graph

Search for Another Location

Airport or City:

Astronomy

Aug. 25, 2019 Rise Set
Actual Time 6:41 AM EDT 8:00 PM EDT
Civil Twilight 6:14 AM EDT 8:28 PM EDT
Nautical Twilight 5:40 AM EDT 9:01 PM EDT
Astronomical Twilight 5:05 AM EDT 9:36 PM EDT
Moon 1:17 AM EDT (8/25) 4:17 PM EDT (8/25)
Length of Visible Light 14h 14m
Length of Day
13h 18m
Waning Crescent, 29% of the Moon is Illuminated
Aug 25
Waning Crescent
Aug 30
New
Sep 5
First Quarter
Sep 14
Full
Sep 21
Last Quarter

Hourly Weather History & Observations

Time (EDT) Temp. Dew Point Humidity Pressure Visibility Wind Dir Wind Speed Gust Speed Precip Events Conditions
12:51 AM 55.9 °F 51.1 °F 84% 30.24 in 10.0 mi Calm Calm - N/A   Scattered Clouds
1:51 AM 54.0 °F 51.1 °F 90% 30.23 in 10.0 mi Calm Calm - N/A   Mostly Cloudy
2:51 AM 53.1 °F 50.0 °F 89% 30.21 in 10.0 mi Calm Calm - N/A   Scattered Clouds
3:51 AM 52.0 °F 48.9 °F 89% 30.21 in 10.0 mi Calm Calm - N/A   Partly Cloudy
4:51 AM 50.0 °F 48.0 °F 93% 30.21 in 10.0 mi Calm Calm - N/A   Clear
5:51 AM 48.9 °F 46.9 °F 93% 30.23 in 9.0 mi Calm Calm - N/A   Clear
6:22 AM 48.9 °F 46.0 °F 90% 30.23 in 4.0 mi Calm Calm - N/A   Scattered Clouds
6:24 AM 48.9 °F 46.0 °F 90% 30.23 in 1.5 mi Calm Calm - N/A   Scattered Clouds
6:26 AM 48.9 °F 46.0 °F 90% 30.23 in 0.8 mi Calm Calm - N/A   Mist
6:36 AM 48.9 °F 46.9 °F 93% 30.23 in 0.2 mi Calm Calm - N/A Fog Fog
6:51 AM 48.9 °F 46.0 °F 90% 30.24 in 0.2 mi Calm Calm - N/A Fog Fog
7:35 AM 50.0 °F 46.9 °F 89% 30.25 in 1.0 mi Calm Calm - N/A   Mist
7:38 AM 50.0 °F 48.0 °F 93% 30.25 in 3.0 mi Calm Calm - N/A   Mostly Cloudy
7:47 AM 51.8 °F 48.2 °F 88% 30.25 in 8.0 mi Calm Calm - N/A   Scattered Clouds
7:51 AM 51.1 °F 48.9 °F 92% 30.25 in 9.0 mi Calm Calm - N/A   Partly Cloudy
8:51 AM 57.0 °F 52.0 °F 83% 30.25 in 10.0 mi Calm Calm - N/A   Clear
9:51 AM 64.9 °F 53.1 °F 65% 30.23 in 10.0 mi Calm Calm - N/A   Clear
10:51 AM 69.1 °F 48.0 °F 47% 30.22 in 10.0 mi SE 10.4 mph - N/A   Partly Cloudy
11:51 AM 71.1 °F 48.0 °F 44% 30.22 in 10.0 mi SE 6.9 mph - N/A   Partly Cloudy
12:51 PM 73.0 °F 50.0 °F 44% 30.20 in 10.0 mi SE 8.1 mph - N/A   Mostly Cloudy
1:51 PM 73.0 °F 50.0 °F 44% 30.19 in 10.0 mi East 8.1 mph - N/A   Scattered Clouds
2:51 PM 73.9 °F 50.0 °F 43% 30.19 in 10.0 mi Variable 6.9 mph - N/A   Partly Cloudy
3:51 PM 72.0 °F 50.0 °F 46% 30.19 in 10.0 mi Variable 5.8 mph - N/A   Partly Cloudy
4:51 PM 71.1 °F 48.9 °F 45% 30.20 in 10.0 mi Variable 6.9 mph - N/A   Overcast
5:51 PM 71.1 °F 48.9 °F 45% 30.19 in 10.0 mi Variable 5.8 mph - N/A   Clear
6:51 PM 69.1 °F 48.0 °F 47% 30.19 in 10.0 mi ESE 4.6 mph - N/A   Partly Cloudy
7:51 PM 62.1 °F 50.0 °F 65% 30.18 in 10.0 mi Calm Calm - N/A   Clear
8:51 PM 57.0 °F 51.1 °F 81% 30.18 in 10.0 mi Calm Calm - N/A   Clear
9:51 PM 54.0 °F 50.0 °F 86% 30.19 in 10.0 mi Calm Calm - N/A   Clear
10:51 PM 53.1 °F 50.0 °F 89% 30.18 in 10.0 mi Calm Calm - N/A   Clear
11:51 PM 54.0 °F 50.0 °F 86% 30.18 in 10.0 mi Calm Calm - N/A   Clear